Year,Month,Day,Hour,Minute,Value (Times are PST for temperature in C)
2017,06,23,00,00,18.20
2017,06,23,00,01,18.20
2017,06,23,00,02,18.20
2017,06,23,00,03,18.20
2017,06,23,00,04,18.20
2017,06,23,00,05,18.20
2017,06,23,00,06,18.20
2017,06,23,00,07,18.20
2017,06,23,00,08,18.20
2017,06,23,00,09,18.20
2017,06,23,00,10,18.20
2017,06,23,00,11,18.20
2017,06,23,00,12,18.20
2017,06,23,00,13,18.20
2017,06,23,00,14,18.20
2017,06,23,00,15,18.20
2017,06,23,00,16,18.20
2017,06,23,00,17,18.20
2017,06,23,00,18,18.20
2017,06,23,00,19,18.20
2017,06,23,00,20,18.20
2017,06,23,00,21,18.20
2017,06,23,00,22,18.20
2017,06,23,00,23,18.20
2017,06,23,00,24,18.20
2017,06,23,00,25,18.20
2017,06,23,00,26,18.20
2017,06,23,00,27,18.20
2017,06,23,00,28,18.20
2017,06,23,00,29,18.20
2017,06,23,00,30,18.20
2017,06,23,00,31,18.20
2017,06,23,00,32,18.20
2017,06,23,00,33,18.20
2017,06,23,00,34,18.20
2017,06,23,00,35,18.20
2017,06,23,00,36,18.10
2017,06,23,00,37,18.20
2017,06,23,00,38,18.20
2017,06,23,00,39,18.20
2017,06,23,00,40,18.20
2017,06,23,00,41,18.20
2017,06,23,00,42,18.10
2017,06,23,00,43,18.20
2017,06,23,00,44,18.20
2017,06,23,00,45,18.20
2017,06,23,00,46,18.20
2017,06,23,00,47,18.20
2017,06,23,00,48,18.20
2017,06,23,00,49,18.10
2017,06,23,00,50,18.10
2017,06,23,00,51,18.10
2017,06,23,00,52,18.10
2017,06,23,00,53,18.10
2017,06,23,00,54,18.00
2017,06,23,00,55,18.00
2017,06,23,00,56,18.00
2017,06,23,00,57,18.00
2017,06,23,00,58,18.00
2017,06,23,00,59,18.00
2017,06,23,01,00,18.00
2017,06,23,01,01,18.00
2017,06,23,01,02,17.90
2017,06,23,01,03,17.90
2017,06,23,01,04,18.00
2017,06,23,01,05,18.00
2017,06,23,01,06,18.00
2017,06,23,01,07,18.00
2017,06,23,01,08,18.00
2017,06,23,01,09,18.00
2017,06,23,01,10,18.00
2017,06,23,01,11,18.00
2017,06,23,01,12,17.90
2017,06,23,01,13,17.90
2017,06,23,01,14,17.90
2017,06,23,01,15,17.90
2017,06,23,01,16,17.90
2017,06,23,01,17,17.90
2017,06,23,01,18,17.90
2017,06,23,01,19,17.90
2017,06,23,01,20,17.90
2017,06,23,01,21,17.90
2017,06,23,01,22,18.00
2017,06,23,01,23,18.00
2017,06,23,01,24,18.00
2017,06,23,01,25,18.00
2017,06,23,01,26,18.10
2017,06,23,01,27,18.10
2017,06,23,01,28,18.10
2017,06,23,01,29,18.10
2017,06,23,01,30,18.10
2017,06,23,01,31,18.10
2017,06,23,01,32,18.10
2017,06,23,01,33,18.10
2017,06,23,01,34,18.10
2017,06,23,01,35,18.10
2017,06,23,01,36,18.10
2017,06,23,01,37,18.10
2017,06,23,01,38,18.10
2017,06,23,01,39,18.10
2017,06,23,01,40,18.10
2017,06,23,01,41,18.10
2017,06,23,01,42,18.10
2017,06,23,01,43,18.00
2017,06,23,01,44,18.00
2017,06,23,01,45,18.00
2017,06,23,01,46,18.00
2017,06,23,01,47,18.00
2017,06,23,01,48,17.90
2017,06,23,01,49,17.90
2017,06,23,01,50,17.90
2017,06,23,01,51,17.90
2017,06,23,01,52,17.80
2017,06,23,01,53,17.80
2017,06,23,01,54,17.80
2017,06,23,01,55,17.70
2017,06,23,01,56,17.70
2017,06,23,01,57,17.60
2017,06,23,01,58,17.60
2017,06,23,01,59,17.60
2017,06,23,02,00,17.50
2017,06,23,02,01,17.50
2017,06,23,02,02,17.50
2017,06,23,02,03,17.50
2017,06,23,02,04,17.50
2017,06,23,02,05,17.40
2017,06,23,02,06,17.40
2017,06,23,02,07,17.40
2017,06,23,02,08,17.30
2017,06,23,02,09,17.30
2017,06,23,02,10,17.30
2017,06,23,02,11,17.30
2017,06,23,02,12,17.30
2017,06,23,02,13,17.30
2017,06,23,02,14,17.30
2017,06,23,02,15,17.30
2017,06,23,02,16,17.30
2017,06,23,02,17,17.30
2017,06,23,02,18,17.30
2017,06,23,02,19,17.30
2017,06,23,02,20,17.20
2017,06,23,02,21,17.20
2017,06,23,02,22,17.20
2017,06,23,02,23,17.20
2017,06,23,02,24,17.10
2017,06,23,02,25,17.10
2017,06,23,02,26,17.10
2017,06,23,02,27,17.10
2017,06,23,02,28,17.00
2017,06,23,02,29,17.00
2017,06,23,02,30,17.00
2017,06,23,02,31,17.00
2017,06,23,02,32,16.90
2017,06,23,02,33,16.90
2017,06,23,02,34,16.90
2017,06,23,02,35,16.90
2017,06,23,02,36,16.90
2017,06,23,02,37,16.90
2017,06,23,02,38,16.90
2017,06,23,02,39,16.90
2017,06,23,02,40,16.90
2017,06,23,02,41,16.90
2017,06,23,02,42,16.90
2017,06,23,02,43,16.90
2017,06,23,02,44,16.90
2017,06,23,02,45,16.90
2017,06,23,02,46,16.90
2017,06,23,02,47,16.90
2017,06,23,02,48,16.80
2017,06,23,02,49,16.80
2017,06,23,02,50,16.80
2017,06,23,02,51,16.80
2017,06,23,02,52,16.80
2017,06,23,02,53,16.80
2017,06,23,02,54,16.80
2017,06,23,02,55,16.80
2017,06,23,02,56,16.70
2017,06,23,02,57,16.70
2017,06,23,02,58,16.70
2017,06,23,02,59,16.70
2017,06,23,03,00,16.70
2017,06,23,03,01,16.60
2017,06,23,03,02,16.60
2017,06,23,03,03,16.60
2017,06,23,03,04,16.60
2017,06,23,03,05,16.50
2017,06,23,03,06,16.50
2017,06,23,03,07,16.50
2017,06,23,03,08,16.40
2017,06,23,03,09,16.40
2017,06,23,03,10,16.40
2017,06,23,03,11,16.40
2017,06,23,03,12,16.40
2017,06,23,03,13,16.40
2017,06,23,03,14,16.30
2017,06,23,03,15,16.30
2017,06,23,03,16,16.30
2017,06,23,03,17,16.30
2017,06,23,03,18,16.30
2017,06,23,03,19,16.30
2017,06,23,03,20,16.30
2017,06,23,03,21,16.30
2017,06,23,03,22,16.30
2017,06,23,03,23,16.30
2017,06,23,03,24,16.30
2017,06,23,03,25,16.30
2017,06,23,03,26,16.30
2017,06,23,03,27,16.30
2017,06,23,03,28,16.30
2017,06,23,03,29,16.30
2017,06,23,03,30,16.40
2017,06,23,03,31,16.40
2017,06,23,03,32,16.40
2017,06,23,03,33,16.40
2017,06,23,03,34,16.40
2017,06,23,03,35,16.40
2017,06,23,03,36,16.40
2017,06,23,03,37,16.30
2017,06,23,03,38,16.30
2017,06,23,03,39,16.30
2017,06,23,03,40,16.30
2017,06,23,03,41,16.30
2017,06,23,03,42,16.30
2017,06,23,03,43,16.30
2017,06,23,03,44,16.30
2017,06,23,03,45,16.30
2017,06,23,03,46,16.30
2017,06,23,03,47,16.30
2017,06,23,03,48,16.30
2017,06,23,03,49,16.30
2017,06,23,03,50,16.30
2017,06,23,03,51,16.30
2017,06,23,03,52,16.20
2017,06,23,03,53,16.20
2017,06,23,03,54,16.20
2017,06,23,03,55,16.10
2017,06,23,03,56,16.10
2017,06,23,03,57,16.10
2017,06,23,03,58,16.10
2017,06,23,03,59,16.10
2017,06,23,04,00,16.10
2017,06,23,04,01,16.10
2017,06,23,04,02,16.00
2017,06,23,04,03,16.00
2017,06,23,04,04,16.00
2017,06,23,04,05,16.00
2017,06,23,04,06,16.00
2017,06,23,04,07,16.10
2017,06,23,04,08,16.10
2017,06,23,04,09,16.10
2017,06,23,04,10,16.00
2017,06,23,04,11,16.00
2017,06,23,04,12,16.00
2017,06,23,04,13,16.00
2017,06,23,04,14,16.00
2017,06,23,04,15,16.00
2017,06,23,04,16,15.90
2017,06,23,04,17,15.90
2017,06,23,04,18,15.90
2017,06,23,04,19,15.90
2017,06,23,04,20,15.90
2017,06,23,04,21,15.90
2017,06,23,04,22,15.90
2017,06,23,04,23,15.90
2017,06,23,04,24,15.90
2017,06,23,04,25,15.90
2017,06,23,04,26,15.90
2017,06,23,04,27,15.90
2017,06,23,04,28,15.80
2017,06,23,04,29,15.80
2017,06,23,04,30,15.80
2017,06,23,04,31,15.80
2017,06,23,04,32,15.80
2017,06,23,04,33,15.80
2017,06,23,04,34,15.80
2017,06,23,04,35,15.80
2017,06,23,04,36,15.70
2017,06,23,04,37,15.70
2017,06,23,04,38,15.70
2017,06,23,04,39,15.70
2017,06,23,04,40,15.70
2017,06,23,04,41,15.70
2017,06,23,04,42,15.70
2017,06,23,04,43,15.70
2017,06,23,04,44,15.70
2017,06,23,04,45,15.80
2017,06,23,04,46,15.80
2017,06,23,04,47,15.80
2017,06,23,04,48,15.80
2017,06,23,04,49,15.80
2017,06,23,04,50,15.80
2017,06,23,04,51,15.80
2017,06,23,04,52,15.80
2017,06,23,04,53,15.80
2017,06,23,04,54,15.80
2017,06,23,04,55,15.80
2017,06,23,04,56,15.80
2017,06,23,04,57,15.80
2017,06,23,04,58,15.80
2017,06,23,04,59,15.70
2017,06,23,05,00,15.70
2017,06,23,05,01,15.70
2017,06,23,05,02,15.70
2017,06,23,05,03,15.70
2017,06,23,05,04,15.70
2017,06,23,05,05,15.60
2017,06,23,05,06,15.60
2017,06,23,05,07,15.60
2017,06,23,05,08,15.60
2017,06,23,05,09,15.60
2017,06,23,05,10,15.60
2017,06,23,05,11,15.60
2017,06,23,05,12,15.60
2017,06,23,05,13,15.60
2017,06,23,05,14,15.60
2017,06,23,05,15,15.60
2017,06,23,05,16,15.60
2017,06,23,05,17,15.60
2017,06,23,05,18,15.60
2017,06,23,05,19,15.50
2017,06,23,05,20,15.50
2017,06,23,05,21,15.50
2017,06,23,05,22,15.50
2017,06,23,05,23,15.50
2017,06,23,05,24,15.50
2017,06,23,05,25,15.40
2017,06,23,05,26,15.40
2017,06,23,05,27,15.50
2017,06,23,05,28,15.50
2017,06,23,05,29,15.50
2017,06,23,05,30,15.50
2017,06,23,05,31,15.50
2017,06,23,05,32,15.40
2017,06,23,05,33,15.40
2017,06,23,05,34,15.40
2017,06,23,05,35,15.40
2017,06,23,05,36,15.40
2017,06,23,05,37,15.40
2017,06,23,05,38,15.40
2017,06,23,05,39,15.40
2017,06,23,05,40,15.40
2017,06,23,05,41,15.40
2017,06,23,05,42,15.40
2017,06,23,05,43,15.40
2017,06,23,05,44,15.40
2017,06,23,05,45,15.40
2017,06,23,05,46,15.40
2017,06,23,05,47,15.40
2017,06,23,05,48,15.40
2017,06,23,05,49,15.40
2017,06,23,05,50,15.40
2017,06,23,05,51,15.40
2017,06,23,05,52,15.40
2017,06,23,05,53,15.40
2017,06,23,05,54,15.40
2017,06,23,05,55,15.40
2017,06,23,05,56,15.40
2017,06,23,05,57,15.50
2017,06,23,05,58,15.50
2017,06,23,05,59,15.50
2017,06,23,06,00,15.50
2017,06,23,06,01,15.60
2017,06,23,06,02,15.60
2017,06,23,06,03,15.60
2017,06,23,06,04,15.70
2017,06,23,06,05,15.70
2017,06,23,06,06,15.70
2017,06,23,06,07,15.70
2017,06,23,06,08,15.70
2017,06,23,06,09,15.70
2017,06,23,06,10,15.80
2017,06,23,06,11,15.80
2017,06,23,06,12,15.80
2017,06,23,06,13,15.80
2017,06,23,06,14,15.80
2017,06,23,06,15,15.80
2017,06,23,06,16,15.80
2017,06,23,06,17,15.90
2017,06,23,06,18,15.90
2017,06,23,06,19,15.90
2017,06,23,06,20,15.90
2017,06,23,06,21,15.90
2017,06,23,06,22,15.90
2017,06,23,06,23,15.90
2017,06,23,06,24,16.00
2017,06,23,06,25,16.00
2017,06,23,06,26,16.00
2017,06,23,06,27,16.10
2017,06,23,06,28,16.10
2017,06,23,06,29,16.10
2017,06,23,06,30,16.10
2017,06,23,06,31,16.10
2017,06,23,06,32,16.10
2017,06,23,06,33,16.20
2017,06,23,06,34,16.20
2017,06,23,06,35,16.20
2017,06,23,06,36,16.20
2017,06,23,06,37,16.20
2017,06,23,06,38,16.20
2017,06,23,06,39,16.20
2017,06,23,06,40,16.20
2017,06,23,06,41,16.20
2017,06,23,06,42,16.30
2017,06,23,06,43,16.30
2017,06,23,06,44,16.30
2017,06,23,06,45,16.30
2017,06,23,06,46,16.30
2017,06,23,06,47,16.30
2017,06,23,06,48,16.40
2017,06,23,06,49,16.40
2017,06,23,06,50,16.40
2017,06,23,06,51,16.40
2017,06,23,06,52,16.40
2017,06,23,06,53,16.40
2017,06,23,06,54,16.40
2017,06,23,06,55,16.40
2017,06,23,06,56,16.40
2017,06,23,06,57,16.40
2017,06,23,06,58,16.40
2017,06,23,06,59,16.40
2017,06,23,07,00,16.50
2017,06,23,07,01,16.40
2017,06,23,07,02,16.40
2017,06,23,07,03,16.40
2017,06,23,07,04,16.40
2017,06,23,07,05,16.40
2017,06,23,07,06,16.40
2017,06,23,07,07,16.40
2017,06,23,07,08,16.40
2017,06,23,07,09,16.40
2017,06,23,07,10,16.40
2017,06,23,07,11,16.40
2017,06,23,07,12,16.40
2017,06,23,07,13,16.40
2017,06,23,07,14,16.40
2017,06,23,07,15,16.40
2017,06,23,07,16,16.40
2017,06,23,07,17,16.50
2017,06,23,07,18,16.50
2017,06,23,07,19,16.50
2017,06,23,07,20,16.60
2017,06,23,07,21,16.60
2017,06,23,07,22,16.60
2017,06,23,07,23,16.60
2017,06,23,07,24,16.60
2017,06,23,07,25,16.60
2017,06,23,07,26,16.60
2017,06,23,07,27,16.60
2017,06,23,07,28,16.70
2017,06,23,07,29,16.70
2017,06,23,07,30,16.70
2017,06,23,07,31,16.70
2017,06,23,07,32,16.80
2017,06,23,07,33,16.80
2017,06,23,07,34,16.90
2017,06,23,07,35,16.90
2017,06,23,07,36,17.00
2017,06,23,07,37,17.00
2017,06,23,07,38,17.00
2017,06,23,07,39,17.10
2017,06,23,07,40,17.10
2017,06,23,07,41,17.10
2017,06,23,07,42,17.10
2017,06,23,07,43,17.10
2017,06,23,07,44,17.10
2017,06,23,07,45,17.10
2017,06,23,07,46,17.10
2017,06,23,07,47,17.10
2017,06,23,07,48,17.10
2017,06,23,07,49,17.10
2017,06,23,07,50,17.10
2017,06,23,07,51,17.10
2017,06,23,07,52,17.10
2017,06,23,07,53,17.20
2017,06,23,07,54,17.20
2017,06,23,07,55,17.20
2017,06,23,07,56,17.20
2017,06,23,07,57,17.20
2017,06,23,07,58,17.20
2017,06,23,07,59,17.20
2017,06,23,08,00,17.30
2017,06,23,08,01,17.30
2017,06,23,08,02,17.30
2017,06,23,08,03,17.40
2017,06,23,08,04,17.40
2017,06,23,08,05,17.40
2017,06,23,08,06,17.40
2017,06,23,08,07,17.40
2017,06,23,08,08,17.40
2017,06,23,08,09,17.50
2017,06,23,08,10,17.50
2017,06,23,08,11,17.50
2017,06,23,08,12,17.60
2017,06,23,08,13,17.60
2017,06,23,08,14,17.70
2017,06,23,08,15,17.70
2017,06,23,08,16,17.70
2017,06,23,08,17,17.70
2017,06,23,08,18,17.70
2017,06,23,08,19,17.70
2017,06,23,08,20,17.70
2017,06,23,08,21,17.70
2017,06,23,08,22,17.80
2017,06,23,08,23,17.80
2017,06,23,08,24,17.80
2017,06,23,08,25,17.80
2017,06,23,08,26,17.80
2017,06,23,08,27,17.80
2017,06,23,08,28,17.80
2017,06,23,08,29,17.80
2017,06,23,08,30,17.90
2017,06,23,08,31,17.90
2017,06,23,08,32,17.90
2017,06,23,08,33,17.90
2017,06,23,08,34,17.80
2017,06,23,08,35,17.80
2017,06,23,08,36,17.80
2017,06,23,08,37,17.80
2017,06,23,08,38,17.90
2017,06,23,08,39,17.90
2017,06,23,08,40,17.90
2017,06,23,08,41,17.90
2017,06,23,08,42,17.80
2017,06,23,08,43,17.80
2017,06,23,08,44,17.80
2017,06,23,08,45,17.80
2017,06,23,08,46,17.80
2017,06,23,08,47,17.80
2017,06,23,08,48,17.80
2017,06,23,08,49,17.80
2017,06,23,08,50,17.80
2017,06,23,08,51,17.80
2017,06,23,08,52,17.80
2017,06,23,08,53,17.90
2017,06,23,08,54,17.90
2017,06,23,08,55,18.00
2017,06,23,08,56,18.00
2017,06,23,08,57,18.00
2017,06,23,08,58,18.00
2017,06,23,08,59,18.10
2017,06,23,09,00,18.10
2017,06,23,09,01,18.10
2017,06,23,09,02,18.10
2017,06,23,09,03,18.10
2017,06,23,09,04,18.10
2017,06,23,09,05,18.10
2017,06,23,09,06,18.00
2017,06,23,09,07,18.00
2017,06,23,09,08,18.00
2017,06,23,09,09,17.90
2017,06,23,09,10,17.90
2017,06,23,09,11,17.80
2017,06,23,09,12,17.80
2017,06,23,09,13,17.80
2017,06,23,09,14,17.70
2017,06,23,09,15,17.80
2017,06,23,09,16,17.80
2017,06,23,09,17,17.80
2017,06,23,09,18,17.80
2017,06,23,09,19,17.80
2017,06,23,09,20,17.90
2017,06,23,09,21,18.00
2017,06,23,09,22,18.00
2017,06,23,09,23,18.10
2017,06,23,09,24,18.20
2017,06,23,09,25,18.30
2017,06,23,09,26,18.30
2017,06,23,09,27,18.30
2017,06,23,09,28,18.20
2017,06,23,09,29,18.20
2017,06,23,09,30,18.10
2017,06,23,09,31,18.20
2017,06,23,09,32,18.20
2017,06,23,09,33,18.20
2017,06,23,09,34,18.20
2017,06,23,09,35,18.20
2017,06,23,09,36,18.20
2017,06,23,09,37,18.30
2017,06,23,09,38,18.30
2017,06,23,09,39,18.30
2017,06,23,09,40,18.30
2017,06,23,09,41,18.20
2017,06,23,09,42,18.30
2017,06,23,09,43,18.30
2017,06,23,09,44,18.30
2017,06,23,09,45,18.30
2017,06,23,09,46,18.40
2017,06,23,09,47,18.40
2017,06,23,09,48,18.40
2017,06,23,09,49,18.50
2017,06,23,09,50,18.60
2017,06,23,09,51,18.60
2017,06,23,09,52,18.60
2017,06,23,09,53,18.70
2017,06,23,09,54,18.70
2017,06,23,09,55,18.70
2017,06,23,09,56,18.70
2017,06,23,09,57,18.70
2017,06,23,09,58,18.70
2017,06,23,09,59,18.60
2017,06,23,10,00,18.50
2017,06,23,10,01,18.40
2017,06,23,10,02,18.40
2017,06,23,10,03,18.30
2017,06,23,10,04,18.30
2017,06,23,10,05,18.30
2017,06,23,10,06,18.30
2017,06,23,10,07,18.30
2017,06,23,10,08,18.30
2017,06,23,10,09,18.40
2017,06,23,10,10,18.40
2017,06,23,10,11,18.40
2017,06,23,10,12,18.40
2017,06,23,10,13,18.50
2017,06,23,10,14,18.50
2017,06,23,10,15,18.50
2017,06,23,10,16,18.60
2017,06,23,10,17,18.60
2017,06,23,10,18,18.60
2017,06,23,10,19,18.70
2017,06,23,10,20,18.80
2017,06,23,10,21,18.80
2017,06,23,10,22,18.80
2017,06,23,10,23,18.90
2017,06,23,10,24,18.80
2017,06,23,10,25,18.80
2017,06,23,10,26,18.80
2017,06,23,10,27,18.80
2017,06,23,10,28,18.80
2017,06,23,10,29,18.90
2017,06,23,10,30,19.00
2017,06,23,10,31,19.00
2017,06,23,10,32,19.00
2017,06,23,10,33,18.90
2017,06,23,10,34,18.90
2017,06,23,10,35,18.80
2017,06,23,10,36,18.80
2017,06,23,10,37,18.70
2017,06,23,10,38,18.60
2017,06,23,10,39,18.60
2017,06,23,10,40,18.70
2017,06,23,10,41,18.70
2017,06,23,10,42,18.70
2017,06,23,10,43,18.80
2017,06,23,10,44,18.90
2017,06,23,10,45,19.00
2017,06,23,10,46,19.00
2017,06,23,10,47,18.90
2017,06,23,10,48,18.90
2017,06,23,10,49,18.90
2017,06,23,10,50,18.80
2017,06,23,10,51,18.80
2017,06,23,10,52,18.80
2017,06,23,10,53,18.70
2017,06,23,10,54,18.70
2017,06,23,10,55,18.70
2017,06,23,10,56,18.70
2017,06,23,10,57,18.70
2017,06,23,10,58,18.80
2017,06,23,10,59,18.80
2017,06,23,11,00,18.80
2017,06,23,11,01,18.90
2017,06,23,11,02,18.80
2017,06,23,11,03,18.80
2017,06,23,11,04,18.80
2017,06,23,11,05,18.90
2017,06,23,11,06,18.90
2017,06,23,11,07,19.00
2017,06,23,11,08,19.10
2017,06,23,11,09,19.20
2017,06,23,11,10,19.30
2017,06,23,11,11,19.40
2017,06,23,11,12,19.50
2017,06,23,11,13,19.50
2017,06,23,11,14,19.60
2017,06,23,11,15,19.60
2017,06,23,11,16,19.70
2017,06,23,11,17,19.80
2017,06,23,11,18,19.80
2017,06,23,11,19,19.80
2017,06,23,11,20,19.70
2017,06,23,11,21,19.70
2017,06,23,11,22,19.50
2017,06,23,11,23,19.40
2017,06,23,11,24,19.30
2017,06,23,11,25,19.20
2017,06,23,11,26,19.20
2017,06,23,11,27,19.20
2017,06,23,11,28,19.20
2017,06,23,11,29,19.10
2017,06,23,11,30,19.10
2017,06,23,11,31,19.00
2017,06,23,11,32,18.90
2017,06,23,11,33,18.90
2017,06,23,11,34,18.90
2017,06,23,11,35,18.90
2017,06,23,11,36,18.80
2017,06,23,11,37,18.80
2017,06,23,11,38,18.80
2017,06,23,11,39,18.80
2017,06,23,11,40,18.80
2017,06,23,11,41,18.80
2017,06,23,11,42,18.80
2017,06,23,11,43,18.70
2017,06,23,11,44,18.80
2017,06,23,11,45,18.80
2017,06,23,11,46,18.90
2017,06,23,11,47,19.00
2017,06,23,11,48,19.10
2017,06,23,11,49,19.10
2017,06,23,11,50,19.20
2017,06,23,11,51,19.20
2017,06,23,11,52,19.20
2017,06,23,11,53,19.20
2017,06,23,11,54,19.10
2017,06,23,11,55,19.20
2017,06,23,11,56,19.20
2017,06,23,11,57,19.20
2017,06,23,11,58,19.20
2017,06,23,11,59,19.30
2017,06,23,12,00,19.30
2017,06,23,12,01,19.40
2017,06,23,12,02,19.60
2017,06,23,12,03,19.70
2017,06,23,12,04,19.90
2017,06,23,12,05,20.00
2017,06,23,12,06,20.10
2017,06,23,12,07,20.30
2017,06,23,12,08,20.30
2017,06,23,12,09,20.40
2017,06,23,12,10,20.40
2017,06,23,12,11,20.50
2017,06,23,12,12,20.50
2017,06,23,12,13,20.60
2017,06,23,12,14,20.60
2017,06,23,12,15,20.60
2017,06,23,12,16,20.50
2017,06,23,12,17,20.40
2017,06,23,12,18,20.40
2017,06,23,12,19,20.40
2017,06,23,12,20,20.40
2017,06,23,12,21,20.40
2017,06,23,12,22,20.40
2017,06,23,12,23,20.40
2017,06,23,12,24,20.40
2017,06,23,12,25,20.30
2017,06,23,12,26,20.20
2017,06,23,12,27,20.00
2017,06,23,12,28,19.90
2017,06,23,12,29,19.90
2017,06,23,12,30,19.80
2017,06,23,12,31,19.80
2017,06,23,12,32,19.80
2017,06,23,12,33,19.80
2017,06,23,12,34,19.80
2017,06,23,12,35,20.00
2017,06,23,12,36,20.00
2017,06,23,12,37,20.10
2017,06,23,12,38,20.10
2017,06,23,12,39,20.10
2017,06,23,12,40,20.20
2017,06,23,12,41,20.30
2017,06,23,12,42,20.40
2017,06,23,12,43,20.40
2017,06,23,12,44,20.30
2017,06,23,12,45,20.20
2017,06,23,12,46,20.20
2017,06,23,12,47,20.20
2017,06,23,12,48,20.30
2017,06,23,12,49,20.30
2017,06,23,12,50,20.30
2017,06,23,12,51,20.30
2017,06,23,12,52,20.30
2017,06,23,12,53,20.30
2017,06,23,12,54,20.30
2017,06,23,12,55,20.30
2017,06,23,12,56,20.30
2017,06,23,12,57,20.30
2017,06,23,12,58,20.40
2017,06,23,12,59,20.40
2017,06,23,13,00,20.60
2017,06,23,13,01,20.70
2017,06,23,13,02,20.70
2017,06,23,13,03,20.70
2017,06,23,13,04,20.70
2017,06,23,13,05,20.80
2017,06,23,13,06,20.90
2017,06,23,13,07,21.00
2017,06,23,13,08,21.00
2017,06,23,13,09,21.10
2017,06,23,13,10,21.10
2017,06,23,13,11,21.10
2017,06,23,13,12,21.20
2017,06,23,13,13,21.30
2017,06,23,13,14,21.30
2017,06,23,13,15,21.30
2017,06,23,13,16,21.30
2017,06,23,13,17,21.40
2017,06,23,13,18,21.50
2017,06,23,13,19,21.60
2017,06,23,13,20,21.60
2017,06,23,13,21,21.60
2017,06,23,13,22,21.70
2017,06,23,13,23,21.80
2017,06,23,13,24,21.80
2017,06,23,13,25,21.90
2017,06,23,13,26,21.90
2017,06,23,13,27,21.90
2017,06,23,13,28,21.90
2017,06,23,13,29,22.00
2017,06,23,13,30,22.00
2017,06,23,13,31,22.00
2017,06,23,13,32,22.00
2017,06,23,13,33,22.10
2017,06,23,13,34,22.10
2017,06,23,13,35,22.20
2017,06,23,13,36,22.30
2017,06,23,13,37,22.40
2017,06,23,13,38,22.50
2017,06,23,13,39,22.70
2017,06,23,13,40,22.90
2017,06,23,13,41,23.00
2017,06,23,13,42,23.00
2017,06,23,13,43,22.90
2017,06,23,13,44,22.90
2017,06,23,13,45,22.90
2017,06,23,13,46,22.90
2017,06,23,13,47,22.90
2017,06,23,13,48,22.80
2017,06,23,13,49,22.80
2017,06,23,13,50,22.80
2017,06,23,13,51,22.80
2017,06,23,13,52,22.70
2017,06,23,13,53,22.80
2017,06,23,13,54,22.80
2017,06,23,13,55,22.90
2017,06,23,13,56,22.90
2017,06,23,13,57,22.90
2017,06,23,13,58,23.00
2017,06,23,13,59,23.10
2017,06,23,14,00,23.10
2017,06,23,14,01,23.00
2017,06,23,14,02,22.90
2017,06,23,14,03,22.80
2017,06,23,14,04,22.80
2017,06,23,14,05,22.80
2017,06,23,14,06,22.70
2017,06,23,14,07,22.70
2017,06,23,14,08,22.70
2017,06,23,14,09,22.60
2017,06,23,14,10,22.70
2017,06,23,14,11,22.70
2017,06,23,14,12,22.70
2017,06,23,14,13,22.70
2017,06,23,14,14,22.70
2017,06,23,14,15,22.70
2017,06,23,14,16,22.70
2017,06,23,14,17,22.70
2017,06,23,14,18,22.70
2017,06,23,14,19,22.70
2017,06,23,14,20,22.60
2017,06,23,14,21,22.50
2017,06,23,14,22,22.50
2017,06,23,14,23,22.60
2017,06,23,14,24,22.60
2017,06,23,14,25,22.70
2017,06,23,14,26,22.70
2017,06,23,14,27,22.80
2017,06,23,14,28,22.90
2017,06,23,14,29,23.00
2017,06,23,14,30,23.10
2017,06,23,14,31,23.10
2017,06,23,14,32,23.10
2017,06,23,14,33,23.10
2017,06,23,14,34,23.10
2017,06,23,14,35,23.00
2017,06,23,14,36,23.00
2017,06,23,14,37,23.00
2017,06,23,14,38,23.00
2017,06,23,14,39,23.10
2017,06,23,14,40,23.10
2017,06,23,14,41,23.10
2017,06,23,14,42,23.10
2017,06,23,14,43,23.10
2017,06,23,14,44,23.10
2017,06,23,14,45,23.10
2017,06,23,14,46,23.10
2017,06,23,14,47,23.20
2017,06,23,14,48,23.10
2017,06,23,14,49,23.10
2017,06,23,14,50,23.20
2017,06,23,14,51,23.20
2017,06,23,14,52,23.20
2017,06,23,14,53,23.30
2017,06,23,14,54,23.40
2017,06,23,14,55,23.40
2017,06,23,14,56,23.50
2017,06,23,14,57,23.50
2017,06,23,14,58,23.60
2017,06,23,14,59,23.60
2017,06,23,15,00,23.60
2017,06,23,15,01,23.50
2017,06,23,15,02,23.50
2017,06,23,15,03,23.40
2017,06,23,15,04,23.40
2017,06,23,15,05,23.40
2017,06,23,15,06,23.30
2017,06,23,15,07,23.10
2017,06,23,15,08,23.10
2017,06,23,15,09,23.20
2017,06,23,15,10,23.20
2017,06,23,15,11,23.20
2017,06,23,15,12,23.30
2017,06,23,15,13,23.30
2017,06,23,15,14,23.40
2017,06,23,15,15,23.50
2017,06,23,15,16,23.50
2017,06,23,15,17,23.60
2017,06,23,15,18,23.60
2017,06,23,15,19,23.60
2017,06,23,15,20,23.60
2017,06,23,15,21,23.60
2017,06,23,15,22,23.70
2017,06,23,15,23,23.70
2017,06,23,15,24,23.70
2017,06,23,15,25,23.70
2017,06,23,15,26,23.70
2017,06,23,15,27,23.70
2017,06,23,15,28,23.70
2017,06,23,15,29,23.70
2017,06,23,15,30,23.70
2017,06,23,15,31,23.60
2017,06,23,15,32,23.70
2017,06,23,15,33,23.70
2017,06,23,15,34,23.70
2017,06,23,15,35,23.60
2017,06,23,15,36,23.60
2017,06,23,15,37,23.50
2017,06,23,15,38,23.40
2017,06,23,15,39,23.40
2017,06,23,15,40,23.40
2017,06,23,15,41,23.40
2017,06,23,15,42,23.40
2017,06,23,15,43,23.30
2017,06,23,15,44,23.30
2017,06,23,15,45,23.30
2017,06,23,15,46,23.30
2017,06,23,15,47,23.40
2017,06,23,15,48,23.40
2017,06,23,15,49,23.40
2017,06,23,15,50,23.40
2017,06,23,15,51,23.40
2017,06,23,15,52,23.50
2017,06,23,15,53,23.60
2017,06,23,15,54,23.70
2017,06,23,15,55,23.70
2017,06,23,15,56,23.80
2017,06,23,15,57,23.80
2017,06,23,15,58,23.90
2017,06,23,15,59,23.90
2017,06,23,16,00,23.90
2017,06,23,16,01,24.00
2017,06,23,16,02,24.00
2017,06,23,16,03,24.10
2017,06,23,16,04,24.20
2017,06,23,16,05,24.20
2017,06,23,16,06,24.30
2017,06,23,16,07,24.40
2017,06,23,16,08,24.50
2017,06,23,16,09,24.60
2017,06,23,16,10,24.60
2017,06,23,16,11,24.50
2017,06,23,16,12,24.30
2017,06,23,16,13,24.20
2017,06,23,16,14,24.10
2017,06,23,16,15,24.10
2017,06,23,16,16,24.10
2017,06,23,16,17,24.10
2017,06,23,16,18,24.10
2017,06,23,16,19,24.10
2017,06,23,16,20,24.00
2017,06,23,16,21,24.00
2017,06,23,16,22,23.90
2017,06,23,16,23,23.90
2017,06,23,16,24,23.90
2017,06,23,16,25,23.90
2017,06,23,16,26,23.90
2017,06,23,16,27,23.90
2017,06,23,16,28,23.90
2017,06,23,16,29,23.90
2017,06,23,16,30,23.90
2017,06,23,16,31,23.90
2017,06,23,16,32,24.00
2017,06,23,16,33,24.00
2017,06,23,16,34,24.10
2017,06,23,16,35,24.10
2017,06,23,16,36,24.10
2017,06,23,16,37,24.10
2017,06,23,16,38,24.10
2017,06,23,16,39,24.10
2017,06,23,16,40,24.10
2017,06,23,16,41,24.00
2017,06,23,16,42,24.00
2017,06,23,16,43,24.00
2017,06,23,16,44,24.10
2017,06,23,16,45,24.10
2017,06,23,16,46,24.10
2017,06,23,16,47,24.20
2017,06,23,16,48,24.20
2017,06,23,16,49,24.20
2017,06,23,16,50,24.30
2017,06,23,16,51,24.40
2017,06,23,16,52,24.40
2017,06,23,16,53,24.50
2017,06,23,16,54,24.60
2017,06,23,16,55,24.60
2017,06,23,16,56,24.70
2017,06,23,16,57,24.70
2017,06,23,16,58,24.70
2017,06,23,16,59,24.70
2017,06,23,17,00,24.70
2017,06,23,17,01,24.60
2017,06,23,17,02,24.50
2017,06,23,17,03,24.50
2017,06,23,17,04,24.50
2017,06,23,17,05,24.50
2017,06,23,17,06,24.60
2017,06,23,17,07,24.50
2017,06,23,17,08,24.50
2017,06,23,17,09,24.40
2017,06,23,17,10,24.40
2017,06,23,17,11,24.40
2017,06,23,17,12,24.40
2017,06,23,17,13,24.40
2017,06,23,17,14,24.30
2017,06,23,17,15,24.30
2017,06,23,17,16,24.30
2017,06,23,17,17,24.40
2017,06,23,17,18,24.50
2017,06,23,17,19,24.50